Printer-friendly version
Follow the MPC on Twitter Follow the MPC on Facebook The MPC blog
Minor Planet Center

MPEC 2006-K35 : 2006 KL21

The following Minor Planet Electronic Circular may be linked-to from your own Web pages, but must not otherwise be redistributed electronically.

A form allowing access to any MPEC is at the bottom of this page.


Read MPEC 2006-K34 Read MPEC 2006-K36


M.P.E.C. 2006-K35                                Issued 2006 May 23, 22:59 UT

     The Minor Planet Electronic Circulars contain information on unusual
         minor planets and routine data on comets.  They are published
   on behalf of Commission 20 of the International Astronomical Union by the
          Minor Planet Center, Smithsonian Astrophysical Observatory,
                          Cambridge, MA 02138, U.S.A.

                  Supported in part by the Brinson Foundation
                  Supported in part by the TABASGO Foundation
             Prepared using the Tamkin Foundation Computer Network

                              MPC@CFA.HARVARD.EDU
          URL http://cfa-www.harvard.edu/iau/mpc.html  ISSN 1523-6714

                                   2006 KL21

Observations:
     K06K21L* C2006 05 23.37715 14 17 08.19 +27 21 50.6          21.1 V EK035703
     K06K21L  C2006 05 23.38206 14 17 07.76 +27 21 46.8          20.1 V EK035703
     K06K21L  C2006 05 23.38701 14 17 07.18 +27 21 44.8          19.5 V EK035703
     K06K21L  C2006 05 23.39192 14 17 06.75 +27 21 38.3          19.5 V EK035703
     K06K21L  C2006 05 23.41164 14 17 04.77 +27 21 22.5          19.9 V EK035703
     K06K21L  C2006 05 23.41525 14 17 04.45 +27 21 20.0          19.3 V EK035703
     K06K21L  C2006 05 23.42248 14 17 03.76 +27 21 14.0          19.6 V EK035703
     K06K21L  C2006 05 23.82977 14 16 28.64 +27 15 51.9          19.4 V EK035A50
     K06K21L  C2006 05 23.83416 14 16 28.18 +27 15 48.9          19.4 V EK035A50
     K06K21L  C2006 05 23.83708 14 16 27.92 +27 15 45.4          19.5 V EK035A50
     K06K21L  C2006 05 23.83854 14 16 27.79 +27 15 44.4          19.4 V EK035A50
     K06K21L  C2006 05 23.92215 14 16 19.91 +27 14 37.8          20.1 V EK035198
     K06K21L  C2006 05 23.92392 14 16 19.73 +27 14 36.4          20.1 V EK035198

Observer details:
198 Wildberg.  Observer R. Apitzsch.  0.35-m f/4.2 reflector + CCD.
703 Catalina Sky Survey.  Observer E. C. Beshore.  Measurers E. C. Beshore,
    E. J. Christensen, G. J. Garradd, A. R. Gibbs, A. D. Grauer, R. E. Hill,
    R. A. Kowalski, S. M. Larson, R. H. McNaught.  0.68-m Schmidt + CCD.
A50 Andrushivka Astronomical Observatory.  Observers O. Gerashchenko,
    Y. Ivashchenko.  0.6-m reflector + CCD.

Orbital elements:
2006 KL21                                           PHA, Earth MOID = 0.0494 AU
Epoch 2006 Mar. 6.0 TT = JDT 2453800.5                  MPC
M 284.27978              (2000.0)            P               Q
n   0.53086483     Peri.  195.42269     +0.41748445     +0.88587465
a   1.5105905      Node    99.60550     -0.81049026     +0.46369613
e   0.2988910      Incl.   11.84094     -0.41086771     -0.01456017
P   1.86           H   20.5           G   0.15           U   9
Residuals in seconds of arc
060523 703  0.1+  0.9-    060523 703  0.1-  0.2+    060523 A50  0.4+  0.4-
060523 703  0.8+  0.7-    060523 703  0.0   0.3+    060523 198  0.1+  0.3-
060523 703  0.4-  1.4+    060523 A50  0.0   0.1+    060523 198  0.1+  0.2-
060523 703  0.3+  1.0-    060523 A50  0.3-  0.6+
060523 703  0.4-  0.3-    060523 A50  0.2+  0.6-

Ephemeris:
2006 KL21                a,e,i = 1.51, 0.30, 12                  q = 1.0591
Date    TT    R. A. (2000) Decl.     Delta      r     Elong.  Phase     V
2006 05 15    14 30.27   +28 24.8    0.306    1.233   130.9    38.3    19.9
2006 05 25    14 14.72   +26 59.5    0.277    1.194   125.0    44.0    19.8
2006 06 04    14 01.43   +23 23.0    0.252    1.158   119.0    50.0    19.7
2006 06 14    13 52.44   +17 28.4    0.229    1.126   113.4    55.9    19.6
2006 06 24    13 48.50   +09 08.0    0.207    1.099   108.3    61.4    19.5
2006 07 04    13 50.08   -01 48.4    0.189    1.079   104.2    66.0    19.4
2006 07 14    13 57.60   -15 15.8    0.177    1.065   101.3    69.3    19.3
2006 07 24    14 12.46   -30 27.9    0.172    1.059   100.0    70.8    19.3
2006 08 03    14 39.06   -45 44.2    0.178    1.061   100.4    70.1    19.3
2006 08 13    15 27.10   -58 58.0    0.192    1.071   102.3    67.6    19.5
2006 08 23    16 54.45   -68 01.7    0.216    1.088   105.2    63.8    19.6
2006 09 02    19 01.72   -70 48.2    0.245    1.111   108.5    59.4    19.8
2006 09 12    20 50.10   -67 37.9    0.280    1.141   111.8    55.0    20.0
2006 09 22    21 54.34   -61 36.7    0.321    1.175   114.7    50.9    20.3
2006 10 02    22 32.45   -54 44.3    0.367    1.212   116.9    47.4    20.5
2006 10 12    22 58.15   -47 47.2    0.422    1.253   118.0    44.7    20.8
2006 10 22    23 17.93   -41 03.4    0.484    1.295   117.9    42.8    21.1
2006 11 01    23 35.04   -34 41.0    0.556    1.338   116.7    41.5    21.5
2006 11 11    23 50.98   -28 44.7    0.637    1.382   114.6    40.7    21.8

Timothy B. Spahr             (C) Copyright 2006 MPC           M.P.E.C. 2006-K35

Read MPEC 2006-K34 Read MPEC 2006-K36


MPEC number:

Enter an MPEC number in one of the following forms:

  • 1997-B01 (the full form)
  • J97B01 (the packed version of the full form)
  • B01 (the abbreviated form)

Valid HTML 4.01!